Manteo, NC

5:38 AM EDT on June 25, 2017 (GMT -0400)
Dare County Regional

Weather History for KMQI - November, 2013

Change the Weather History Date:

Tuesday, November 5, 2013

  Actual Average Record
Temperature  
Mean Temperature 62 °F -  
Max Temperature 65 °F 63 °F 79 °F (1974)
Min Temperature 58 °F 51 °F 34 °F (1966)
Degree Days  
Heating Degree Days 4    
Growing Degree Days 12 (Base 50)    
Moisture  
Dew Point 53 °F    
Average Humidity 76    
Maximum Humidity 89    
Minimum Humidity 55    
Precipitation  
Precipitation 0.01 in - - ()
Sea Level Pressure  
Sea Level Pressure 30.45 in    
Wind  
Wind Speed 14 mph (ENE)    
Max Wind Speed 18 mph    
Max Gust Speed 24 mph    
Visibility 10 miles    
Events      
Averages and records for this station are not official NWS values.
T = Trace of Precipitation, MM = Missing Value Source: NWS Daily Summary

Daily Weather History Graph

Daily Weather History Graph

Search for Another Location

Airport or City:

Trip Planner

Search our weather history database for the weather conditions in past years. The results will help you decide how hot, cold, wet, or windy it might be!

Date:

Astronomy

Nov. 05, 2013 Rise Set
Actual Time 6:29 AM EST 5:02 PM EST
Civil Twilight 6:02 AM EST 5:29 PM EST
Nautical Twilight 5:32 AM EST 6:00 PM EST
Astronomical Twilight 5:02 AM EST 6:30 PM EST
Moon 8:39 AM EST (11/5) 7:04 PM EST (11/5)
Length of Visible Light 11h 27m
Length of Day
10h 33m
Waxing Crescent, 6% of the Moon is Illuminated
Nov 5
Waxing Crescent
Nov 10
First Quarter
Nov 17
Full
Nov 25
Last Quarter
Dec 2
New

Hourly Weather History & Observations

Time (EST) Temp. Dew Point Humidity Pressure Visibility Wind Dir Wind Speed Gust Speed Precip Events Conditions
12:15 AM 58.1 °F 48.6 °F 71% 30.47 in 10.0 mi ENE 15.0 mph 21.9 mph N/A   Scattered Clouds
12:35 AM 58.1 °F 48.7 °F 71% 30.47 in 10.0 mi NE 12.7 mph 21.9 mph N/A   Clear
12:55 AM 58.1 °F 49.3 °F 72% 30.47 in 10.0 mi NE 15.0 mph 18.4 mph N/A   Scattered Clouds
1:15 AM 58.1 °F 49.8 °F 74% 30.46 in 10.0 mi ENE 15.0 mph 18.4 mph 0.01 in   Scattered Clouds
1:35 AM 58.1 °F 50.2 °F 75% 30.45 in 10.0 mi ENE 15.0 mph 19.6 mph 0.01 in   Clear
1:55 AM 58.3 °F 50.9 °F 76% 30.46 in 10.0 mi ENE 15.0 mph 20.7 mph 0.01 in   Scattered Clouds
2:15 AM 58.5 °F 50.4 °F 74% 30.45 in 10.0 mi NE 13.8 mph 20.7 mph N/A   Scattered Clouds
2:35 AM 58.5 °F 50.4 °F 74% 30.44 in 10.0 mi ENE 16.1 mph 20.7 mph N/A   Scattered Clouds
2:55 AM 58.6 °F 50.2 °F 73% 30.44 in 10.0 mi ENE 17.3 mph 24.2 mph N/A   Scattered Clouds
3:15 AM 58.8 °F 50.7 °F 74% 30.43 in 10.0 mi ENE 17.3 mph 20.7 mph N/A   Mostly Cloudy
3:35 AM 58.6 °F 50.9 °F 75% 30.43 in 10.0 mi ENE 16.1 mph 21.9 mph N/A   Scattered Clouds
3:55 AM 59.2 °F 51.4 °F 75% 30.44 in 10.0 mi ENE 13.8 mph 20.7 mph N/A   Mostly Cloudy
4:15 AM 59.0 °F 51.8 °F 77% 30.43 in 10.0 mi ENE 15.0 mph 19.6 mph N/A   Overcast
4:35 AM 59.4 °F 52.0 °F 77% 30.44 in 10.0 mi ENE 12.7 mph - N/A   Overcast
4:55 AM 59.5 °F 52.7 °F 78% 30.45 in 10.0 mi NE 11.5 mph 18.4 mph N/A   Overcast
5:15 AM 59.9 °F 52.7 °F 77% 30.45 in 10.0 mi NE 11.5 mph 17.3 mph N/A   Overcast
5:35 AM 59.5 °F 53.2 °F 80% 30.45 in 10.0 mi NE 12.7 mph 18.4 mph N/A   Overcast
5:55 AM 59.9 °F 53.1 °F 78% 30.46 in 10.0 mi NE 10.4 mph 20.7 mph N/A   Overcast
6:15 AM 59.9 °F 53.1 °F 78% 30.46 in 10.0 mi NE 13.8 mph 18.4 mph N/A   Overcast
6:35 AM 59.9 °F 52.3 °F 76% 30.46 in 10.0 mi ENE 15.0 mph 19.6 mph N/A   Overcast
6:55 AM 59.9 °F 52.7 °F 77% 30.47 in 10.0 mi ENE 15.0 mph 20.7 mph N/A   Mostly Cloudy
7:15 AM 59.9 °F 52.9 °F 78% 30.47 in 10.0 mi ENE 16.1 mph 21.9 mph N/A   Scattered Clouds
7:35 AM 60.4 °F 53.6 °F 78% 30.47 in 10.0 mi ENE 15.0 mph 21.9 mph N/A   Clear
7:55 AM 62.1 °F 53.8 °F 74% 30.47 in 10.0 mi ENE 16.1 mph 23.0 mph N/A   Clear
8:15 AM 61.2 °F 53.8 °F 77% 30.48 in 10.0 mi ENE 16.1 mph 19.6 mph N/A   Clear
8:35 AM 61.7 °F 54.0 °F 76% 30.48 in 10.0 mi ENE 18.4 mph - N/A   Clear
8:55 AM 61.7 °F 54.0 °F 76% 30.49 in 10.0 mi ENE 13.8 mph 18.4 mph N/A   Clear
9:15 AM 62.1 °F 54.0 °F 75% 30.49 in 10.0 mi ENE 13.8 mph - N/A   Scattered Clouds
9:35 AM 62.2 °F 54.0 °F 74% 30.49 in 10.0 mi ENE 13.8 mph 19.6 mph N/A   Scattered Clouds
9:55 AM 63.3 °F 53.6 °F 71% 30.49 in 10.0 mi ENE 16.1 mph 24.2 mph N/A   Scattered Clouds
10:15 AM 63.9 °F 54.0 °F 70% 30.50 in 10.0 mi ENE 13.8 mph 23.0 mph N/A   Clear
10:35 AM 64.4 °F 54.5 °F 70% 30.49 in 10.0 mi ENE 13.8 mph 21.9 mph N/A   Clear
10:55 AM 64.2 °F 54.5 °F 71% 30.49 in 10.0 mi ENE 15.0 mph - N/A   Clear
11:15 AM 64.6 °F 54.5 °F 70% 30.48 in 10.0 mi ENE 13.8 mph 23.0 mph N/A   Clear
11:35 AM 64.6 °F 54.3 °F 69% 30.48 in 10.0 mi ENE 13.8 mph 19.6 mph N/A   Clear
11:55 AM 64.0 °F 53.6 °F 69% 30.47 in 10.0 mi ENE 16.1 mph - N/A   Clear
12:15 PM 63.9 °F 53.8 °F 70% 30.47 in 10.0 mi ENE 15.0 mph 21.9 mph N/A   Clear
12:35 PM 64.8 °F 53.6 °F 67% 30.46 in 10.0 mi ENE 18.4 mph - N/A   Clear
12:55 PM 63.1 °F 53.2 °F 70% 30.46 in 10.0 mi ENE 13.8 mph 21.9 mph N/A   Clear
1:15 PM 65.5 °F 53.2 °F 65% 30.46 in 10.0 mi ENE 16.1 mph 19.6 mph N/A   Clear
1:35 PM 65.5 °F 52.5 °F 63% 30.45 in 10.0 mi ENE 18.4 mph 23.0 mph N/A   Clear
1:55 PM 65.3 °F 51.3 °F 60% 30.45 in 10.0 mi ENE 16.1 mph 20.7 mph N/A   Clear
2:15 PM 63.3 °F 48.6 °F 59% 30.44 in 10.0 mi ENE 16.1 mph 23.0 mph N/A   Clear
2:35 PM 63.1 °F 48.7 °F 59% 30.45 in 10.0 mi ENE 13.8 mph 20.7 mph N/A   Clear
2:55 PM 64.8 °F 48.0 °F 55% 30.45 in 10.0 mi ENE 16.1 mph - N/A   Clear
3:15 PM 64.6 °F 48.7 °F 56% 30.45 in 10.0 mi ENE 13.8 mph - N/A   Clear
3:35 PM 63.5 °F 52.0 °F 66% 30.46 in 10.0 mi NE 11.5 mph 19.6 mph N/A   Clear
3:55 PM 62.1 °F 52.7 °F 71% 30.45 in 10.0 mi ENE 12.7 mph 16.1 mph N/A   Clear
4:15 PM 61.9 °F 53.4 °F 74% 30.45 in 10.0 mi ENE 10.4 mph - N/A   Clear
4:35 PM 61.0 °F 53.8 °F 77% 30.45 in 10.0 mi ENE 11.5 mph - N/A   Clear
4:55 PM 60.8 °F 53.8 °F 78% 30.44 in 10.0 mi ENE 11.5 mph 17.3 mph N/A   Clear
5:15 PM 60.1 °F 54.1 °F 81% 30.44 in 10.0 mi ENE 11.5 mph - N/A   Clear
5:35 PM 60.1 °F 54.3 °F 81% 30.44 in 10.0 mi ENE 12.7 mph - N/A   Clear
5:55 PM 60.1 °F 54.7 °F 82% 30.45 in 10.0 mi NE 11.5 mph 16.1 mph N/A   Clear
6:15 PM 60.1 °F 54.5 °F 82% 30.45 in 10.0 mi NE 12.7 mph - N/A   Clear
6:35 PM 59.9 °F 54.3 °F 82% 30.45 in 10.0 mi NE 9.2 mph - N/A   Clear
6:55 PM 59.5 °F 54.1 °F 82% 30.45 in 10.0 mi NE 10.4 mph - N/A   Clear
7:15 PM 59.5 °F 54.5 °F 83% 30.45 in 10.0 mi NE 9.2 mph - N/A   Clear
7:35 PM 59.5 °F 54.5 °F 83% 30.45 in 10.0 mi ENE 11.5 mph - N/A   Clear
7:55 PM 59.4 °F 54.5 °F 84% 30.44 in 10.0 mi ENE 9.2 mph - N/A   Clear
8:15 PM 59.4 °F 54.9 °F 85% 30.44 in 10.0 mi NE 9.2 mph - N/A   Clear
8:35 PM 59.2 °F 55.4 °F 87% 30.44 in 10.0 mi NE 11.5 mph - N/A   Clear
8:55 PM 59.4 °F 55.6 °F 87% 30.44 in 10.0 mi ENE 11.5 mph - N/A   Clear
9:15 PM 59.5 °F 55.6 °F 87% 30.44 in 10.0 mi ENE 11.5 mph - N/A   Clear
9:35 PM 59.5 °F 55.9 °F 88% 30.44 in 10.0 mi ENE 11.5 mph - N/A   Clear
9:55 PM 59.9 °F 55.9 °F 87% 30.43 in 10.0 mi ENE 12.7 mph - N/A   Clear
10:15 PM 59.7 °F 55.9 °F 87% 30.43 in 10.0 mi NE 10.4 mph - N/A   Clear
10:35 PM 59.9 °F 55.9 °F 87% 30.43 in 10.0 mi NE 10.4 mph - N/A   Scattered Clouds
10:55 PM 60.3 °F 55.9 °F 86% 30.43 in 10.0 mi NE 9.2 mph - N/A   Overcast
11:15 PM 59.9 °F 56.3 °F 88% 30.43 in 10.0 mi NE 8.1 mph - N/A   Scattered Clouds
11:35 PM 59.9 °F 55.9 °F 87% 30.42 in 10.0 mi NE 10.4 mph - N/A   Scattered Clouds
11:55 PM 59.5 °F 56.3 °F 89% 30.42 in 10.0 mi NE 10.4 mph - N/A   Scattered Clouds